Temperature
7 7 6 6 5 5 5 4 4 4 4 4 4 3 3 3 3 3 2 2 2 2 2 2 2 1 1 1 2 2 2 2 2 2 3 3 3 3 3 3 3 4 4
7 6 5 5 5 5 4 4 4 4 4 4 3 3 3 3 2 2 2 2 2 2 2 1 1 1 1 2 2 2 2 2 2 2 2 3 3 3 3 3 3 3 3
6 5 5 5 4 4 4 4 4 4 4 3 3 3 3 2 2 2 1 1 1 1 1 1 1 1 1 2 2 2 2 2 2 2 2 2 3 3 3 3 3 3 3
5 5 5 4 4 4 4 4 4 3 3 3 3 3 2 2 2 1 1 1 1 1 1 0 0 1 1 1 1 2 2 2 2 2 2 2 3 3 3 3 3 3 3
5 5 4 4 4 4 4 4 3 3 3 3 3 2 2 2 1 1 0 0 -0 0 0 0 -0 0 1 1 1 1 1 1 1 1 2 2 3 3 3 3 3 3 3
5 4 4 4 4 4 4 4 3 3 3 3 3 2 2 1 1 0 -0 -1 -1 -1 -1 -1 -0 0 0 1 1 1 1 1 1 2 2 2 3 3 3 3 3 3 3
5 4 4 4 4 4 4 4 4 3 3 3 3 2 2 1 0 -0 -1 -1 -1 -1 -1 -1 -1 0 0 1 1 1 1 2 2 2 2 3 3 3 3 3 3 2 2
4 4 4 4 4 4 4 4 4 4 3 3 2 2 1 0 -1 -1 -2 -2 -2 -2 -1 -1 -0 0 0 0 1 1 2 2 3 3 3 3 3 3 3 3 3 2 1
4 4 4 4 4 4 4 4 4 3 3 2 2 1 0 -1 -1 -2 -2 -2 -2 -2 -1 -1 -0 0 0 0 1 1 2 2 3 3 3 3 3 3 3 3 2 2 1
5 5 5 5 5 5 5 4 4 3 2 1 1 -0 -1 -1 -2 -3 -3 -3 -2 -2 -1 -0 -0 0 0 0 1 1 2 2 3 3 3 3 3 3 3 2 2 2 1
5 5 5 5 5 5 5 4 4 3 2 1 0 -1 -1 -2 -2 -3 -3 -3 -3 -2 -1 -0 -0 0 0 1 1 1 2 3 3 3 3 2 2 2 2 1 1 0 0
5 5 5 6 6 5 5 4 3 2 1 1 -0 -1 -1 -2 -3 -3 -3 -3 -2 -1 -1 -0 0 0 0 1 1 2 2 3 3 3 2 2 2 1 1 0 -0 -1 -1
5 5 5 5 5 5 4 3 2 1 0 -1 -1 -2 -3 -3 -3 -3 -3 -2 -1 -1 -0 0 0 0 0 1 1 2 3 3 3 2 2 2 1 1 0 -1 -1 -1 -2
5 5 5 5 4 3 3 2 1 -0 -1 -2 -3 -3 -3 -4 -4 -4 -3 -2 -1 -1 -0 -0 -0 0 0 1 1 2 2 2 2 2 1 1 1 -0 -1 -1 -1 -1 -1
5 5 4 4 3 2 1 0 -1 -2 -2 -3 -3 -4 -4 -4 -4 -3 -3 -2 -1 -1 -0 -0 -0 -0 0 1 1 2 2 2 2 2 1 1 0 -1 -1 -1 -1 -1 -1
5 4 3 2 1 0 -0 -1 -2 -2 -3 -3 -3 -4 -3 -4 -3 -3 -2 -2 -1 -1 -0 -0 -0 -0 0 0 1 1 2 2 2 1 1 0 -0 -1 -1 -1 -1 -1 -1
4 3 3 2 0 -0 -1 -1 -2 -2 -3 -3 -3 -3 -3 -3 -3 -3 -2 -1 -1 -1 -1 -0 -0 -0 -0 0 1 1 1 1 1 1 1 0 -0 -0 -1 -1 -1 -1 -0
4 3 2 1 -0 -1 -1 -2 -2 -2 -3 -3 -3 -3 -3 -3 -3 -2 -2 -1 -1 -1 -0 -0 -0 -0 -0 0 0 1 1 1 1 1 1 0 0 -0 -1 -1 -1 -0 -0
3 2 1 0 -0 -1 -1 -2 -2 -2 -3 -3 -3 -2 -2 -2 -2 -2 -2 -1 -1 -1 -0 -0 -0 -0 -0 -0 0 1 1 1 1 1 1 0 0 -0 -0 -0 -0 -0 0
3 2 1 0 -1 -1 -1 -2 -2 -2 -2 -2 -2 -2 -2 -2 -2 -2 -2 -2 -1 -1 -0 -0 -0 -0 -0 -0 -0 0 0 1 1 1 1 0 0 -0 -0 -0 0 0 0
3 2 1 0 -1 -1 -1 -2 -2 -2 -2 -2 -2 -2 -2 -2 -2 -2 -2 -1 -1 -1 -1 -0 -0 0 0 -0 -0 -0 0 0 0 0 0 0 -0 -0 -0 0 0 0 0
3 2 1 0 -0 -1 -1 -2 -2 -2 -2 -2 -2 -2 -2 -2 -2 -2 -1 -1 -1 -1 -1 -0 -0 0 0 0 -0 -0 -0 -0 0 0 0 -0 -0 -0 0 0 1 1 1
2 2 1 0 -0 -1 -1 -1 -2 -2 -2 -3 -2 -2 -2 -2 -2 -2 -2 -1 -1 -1 -0 -0 0 0 0 0 0 -0 -0 -0 -0 -0 0 0 0 0 0 0 1 1 1
2 2 1 1 0 -0 -1 -1 -2 -2 -2 -3 -3 -3 -2 -2 -2 -2 -1 -1 -1 -1 -0 -0 -0 0 0 0 0 0 -0 -0 -0 -0 -0 0 0 0 0 0 1 1 1
2 2 1 1 0 -0 -1 -1 -2 -2 -2 -2 -2 -3 -3 -2 -2 -2 -1 -1 -1 -1 -1 -0 -0 -0 0 0 0 0 0 -0 -0 -0 -0 -0 -0 0 0 0 0 0 1
3 2 2 1 1 0 -0 -1 -1 -1 -2 -2 -2 -2 -2 -2 -2 -2 -2 -1 -1 -1 -1 -1 -0 -0 0 0 0 0 0 0 -0 -0 -0 0 0 0 0 0 1 1 1
Wind_Speed
5 4 3 2 2 2 3 4 5 5 6 6 6 5 3 3 4 5 5 6 8 9 9 10 11 11 9 8 8 8 8 9 12 8 6 7 7 9 9 8 9 6 4
3 3 2 1 2 4 5 6 6 6 6 6 5 3 2 3 3 3 6 7 9 11 12 11 12 11 10 9 8 9 9 8 9 12 8 7 8 8 8 7 4 1 1
3 3 2 3 4 5 6 6 6 6 6 5 4 1 2 2 0 3 5 8 9 10 11 12 13 12 12 10 9 8 7 8 7 10 11 8 7 6 6 2 2 3 3
3 3 4 4 5 6 6 6 5 5 5 5 3 1 3 2 2 5 7 8 9 10 11 11 12 12 11 10 8 7 7 8 9 10 11 9 7 6 3 2 2 3 3
3 4 4 4 5 5 5 5 5 5 5 4 2 1 3 3 2 6 7 9 10 11 11 11 12 15 15 11 10 9 10 10 10 11 11 9 7 5 3 3 3 3 2
3 3 3 3 4 5 5 5 5 5 5 4 3 3 3 2 4 9 12 8 10 11 12 12 13 13 14 17 19 19 18 15 13 12 10 10 8 4 3 4 4 2 1
3 3 3 3 4 5 6 6 6 5 4 5 4 4 4 4 6 9 16 11 10 10 11 12 13 13 14 11 17 21 20 22 21 15 12 10 6 5 6 5 3 3 2
3 4 4 5 6 6 6 6 6 5 4 4 4 4 2 4 6 10 18 11 9 10 12 12 13 13 13 14 16 16 15 14 14 10 8 7 5 6 6 7 9 8 5
4 5 6 6 7 7 8 8 6 4 4 3 3 3 3 5 8 12 17 9 9 12 13 13 13 12 16 20 16 15 14 11 8 2 5 8 11 14 13 11 8 7 5
6 7 8 8 8 9 9 8 4 2 3 5 6 5 5 6 10 14 18 8 10 11 12 12 15 15 19 20 14 12 11 7 4 8 12 15 14 14 12 7 6 7 4
7 7 8 8 8 8 6 4 3 5 7 7 7 6 6 8 11 17 20 11 11 12 11 11 11 18 21 19 15 9 6 3 5 10 12 11 11 10 9 7 6 5 5
7 7 8 8 7 5 6 7 8 8 8 7 6 7 6 8 11 15 20 19 16 12 10 10 11 18 18 16 11 8 3 5 8 10 10 10 9 9 8 8 9 8 9
7 8 8 8 9 9 9 9 8 7 6 5 5 6 8 8 10 15 17 19 20 12 10 16 17 17 14 11 12 10 7 8 9 10 10 10 10 10 9 9 10 10 9
7 7 7 8 9 9 7 6 6 5 5 5 6 7 8 8 9 11 11 11 15 14 11 13 15 14 12 11 10 8 7 8 9 10 11 10 9 9 9 7 7 6 8
7 8 8 8 7 7 6 4 4 2 1 3 5 6 8 9 12 17 13 11 11 12 11 8 7 8 9 9 8 8 8 8 9 10 10 10 10 9 8 6 5 5 6
8 8 6 5 5 4 4 4 5 4 6 8 9 10 8 11 16 17 18 18 17 17 10 8 8 8 9 9 8 7 7 8 9 9 10 9 9 9 8 6 5 5 6
8 8 6 6 5 4 3 4 5 6 9 10 12 14 14 15 16 17 18 17 15 14 8 8 8 8 8 8 8 7 7 8 8 8 9 9 8 8 8 6 5 5 6
9 10 8 6 6 5 5 5 5 6 7 8 10 13 15 16 15 16 16 12 11 11 9 9 8 8 8 8 8 7 7 7 8 8 8 8 8 8 7 6 5 5 5
8 6 6 6 6 5 5 6 6 7 7 7 8 10 13 13 12 13 12 8 9 9 9 9 8 8 7 7 7 7 7 8 8 8 8 8 7 7 6 6 5 7 6
8 11 8 6 5 6 6 6 6 7 8 8 9 10 11 9 8 9 8 8 9 9 10 9 9 8 7 7 7 7 7 7 8 7 7 6 6 6 5 6 5 5 5
7 8 9 6 5 5 5 6 6 7 8 8 9 12 14 9 9 9 9 9 9 9 10 9 9 8 7 6 6 7 8 7 7 7 6 5 5 5 4 4 5 6 8
7 5 5 5 5 5 5 5 6 7 8 9 8 10 14 10 9 9 9 9 9 9 9 9 8 8 7 7 6 5 6 6 6 6 6 5 5 5 4 5 6 7 9
7 6 5 4 4 5 5 5 5 6 7 8 9 9 10 10 10 10 10 10 9 9 9 9 10 10 8 9 8 5 5 4 4 5 6 6 6 5 5 6 8 8 8
6 6 5 4 3 3 3 4 5 6 7 8 9 10 10 10 10 11 11 10 10 10 12 12 11 13 15 12 10 9 7 6 7 7 7 6 6 5 5 6 6 7 8
6 6 5 3 3 3 3 4 5 6 7 7 8 9 10 10 11 11 11 11 11 11 13 15 14 14 16 17 15 11 9 7 7 8 8 5 6 5 4 4 5 6 7
6 6 5 5 4 4 4 5 6 7 7 7 8 9 10 10 11 11 11 11 11 11 13 14 18 19 19 17 17 15 11 8 6 6 6 4 4 4 4 4 6 6 8
Wind_Direction
103 97 80 34 359 345 325 310 305 304 311 315 316 325 4 42 42 31 356 336 319 308 303 301 295 289 283 278 274 269 266 264 276 279 267 275 275 275 281 276 276 274 266
104 87 60 339 328 326 314 309 309 311 313 313 318 335 75 86 53 11 334 324 311 310 308 303 298 297 287 283 277 271 268 262 269 281 282 279 269 269 270 274 284 246 89
67 44 357 327 322 318 312 312 316 318 322 327 332 338 142 144 346 319 309 306 305 305 305 301 298 297 294 289 283 279 275 276 266 277 282 277 271 268 266 262 81 56 56
32 6 337 320 318 317 319 323 321 322 324 326 329 222 177 194 282 312 310 305 307 308 305 300 298 297 294 294 296 289 288 285 278 275 276 276 271 262 235 188 123 67 39
6 347 325 322 330 334 337 331 325 323 323 317 313 242 217 221 294 322 314 320 315 313 310 306 306 308 313 317 315 305 297 287 281 275 271 270 265 249 217 162 139 129 57
346 330 323 338 340 334 324 317 317 316 311 306 285 255 254 254 302 323 332 318 313 311 310 311 310 305 316 320 315 309 299 289 281 272 266 259 255 232 173 149 147 162 62
330 316 312 316 318 313 313 315 308 302 297 296 280 265 263 270 292 316 334 333 311 306 306 310 313 312 315 311 312 309 299 289 280 269 257 249 236 198 155 140 115 93 63
323 309 298 295 293 296 302 295 287 280 283 287 290 289 282 290 309 325 336 331 308 306 307 306 305 306 309 313 312 304 299 296 287 268 241 231 203 151 132 123 117 102 76
305 293 284 278 280 285 286 280 276 278 300 320 333 350 336 318 325 333 340 321 318 315 312 310 309 307 308 314 313 306 305 309 320 357 131 123 120 120 123 121 122 115 88
285 282 282 280 275 275 275 277 280 307 11 24 23 12 351 328 330 338 341 327 323 321 316 314 313 311 312 315 313 306 306 320 21 82 91 94 98 98 95 99 114 115 107
286 290 293 290 284 282 292 318 9 52 52 40 24 2 344 334 335 338 339 338 326 320 316 316 314 314 317 315 314 306 298 314 91 98 96 95 92 89 84 77 69 82 95
305 312 313 316 325 357 42 49 56 59 50 29 5 347 335 332 334 333 332 331 329 319 313 313 313 316 320 322 327 334 9 102 105 100 98 96 94 91 88 83 78 75 81
335 336 345 15 40 55 66 65 59 52 43 14 354 341 334 332 331 332 331 330 333 333 321 325 328 329 334 338 348 11 72 100 102 99 96 94 95 97 94 89 85 85 84
359 359 29 61 60 56 61 65 66 53 36 9 352 339 331 332 340 345 341 336 337 339 332 331 333 339 350 354 4 33 65 84 96 98 98 99 98 96 93 92 94 89 89
18 32 60 75 73 66 60 51 57 48 47 4 339 333 336 341 339 338 344 341 341 338 334 341 353 355 4 10 21 43 69 84 92 99 104 106 104 102 99 88 86 81 84
46 54 67 78 77 69 58 22 356 334 332 334 335 341 339 336 336 343 346 343 343 346 352 356 0 5 9 14 24 42 64 82 94 102 106 107 107 108 108 98 86 83 88
72 71 63 63 64 60 42 30 13 354 353 354 351 349 350 347 347 348 348 343 348 355 3 2 6 10 13 18 28 42 63 79 92 100 105 107 107 109 111 107 95 88 84
79 77 72 60 52 46 39 32 26 15 2 355 352 353 352 349 347 350 350 353 2 3 2 3 7 12 18 24 32 43 61 77 87 95 100 103 105 108 109 105 99 97 90
83 78 69 59 51 43 35 30 24 16 8 360 359 1 355 350 348 356 359 6 2 360 0 3 8 15 22 29 35 45 58 73 82 87 94 99 103 104 101 95 99 103 93
86 84 77 63 49 41 33 29 24 18 13 10 11 9 359 358 9 7 6 3 3 1 1 4 8 17 24 32 38 47 58 67 75 81 87 91 93 95 95 91 101 106 102
95 84 76 65 53 45 37 29 24 21 18 14 10 3 1 7 9 6 7 7 6 4 3 4 9 16 24 33 42 49 56 63 68 73 80 85 88 89 86 88 101 110 115
105 95 83 74 60 48 41 30 25 24 19 16 9 6 3 10 11 10 11 11 9 7 6 7 11 15 21 27 36 48 54 58 62 67 74 80 82 84 87 93 106 115 121
112 106 93 81 70 57 45 31 27 25 22 19 15 13 12 12 13 13 13 12 11 12 12 15 16 18 20 25 29 34 46 48 56 71 75 77 77 76 80 91 108 116 119
113 115 109 97 79 60 45 29 22 21 21 20 20 19 16 15 14 14 14 14 15 16 19 20 19 18 20 21 21 26 34 50 71 75 77 80 76 68 68 77 91 114 121
94 96 99 98 85 62 39 26 20 20 20 21 22 21 19 18 18 16 15 14 15 18 19 19 18 16 16 19 18 19 32 65 84 86 80 73 76 72 75 89 109 118 124
89 84 80 77 71 62 51 39 32 31 30 28 26 24 22 21 20 18 16 16 16 16 16 16 15 18 17 15 13 21 39 63 89 97 92 81 77 81 92 109 124 123 127
Height
1528 1526 1523 1521 1518 1516 1514 1511 1509 1506 1504 1501 1499 1496 1493 1490 1487 1484 1480 1476 1471 1465 1459 1454 1449 1445 1442 1440 1439 1437 1434 1432 1427 1423 1421 1419 1417 1415 1413 1411 1408 1406 1405
1525 1523 1521 1518 1516 1514 1511 1509 1506 1504 1501 1499 1496 1493 1490 1487 1484 1480 1476 1471 1464 1458 1453 1448 1444 1440 1437 1435 1433 1430 1428 1426 1422 1418 1415 1413 1411 1409 1407 1404 1403 1401 1400
1523 1521 1518 1516 1514 1511 1509 1506 1504 1502 1499 1496 1494 1490 1487 1484 1480 1476 1471 1465 1459 1453 1448 1443 1439 1436 1432 1430 1427 1425 1422 1420 1417 1413 1408 1406 1404 1403 1401 1399 1398 1397 1397
1520 1518 1516 1514 1512 1509 1507 1505 1502 1500 1497 1494 1491 1488 1484 1481 1477 1472 1466 1460 1454 1449 1443 1439 1435 1431 1428 1425 1422 1419 1416 1413 1410 1406 1402 1400 1398 1397 1396 1395 1395 1394 1394
1519 1517 1515 1512 1510 1508 1506 1503 1501 1498 1495 1492 1488 1485 1481 1477 1473 1467 1462 1455 1449 1443 1438 1433 1429 1426 1424 1421 1417 1413 1410 1406 1402 1399 1396 1394 1392 1392 1392 1392 1392 1392 1391
1518 1516 1514 1511 1509 1507 1504 1502 1499 1496 1493 1490 1486 1482 1479 1474 1469 1464 1458 1451 1444 1438 1432 1427 1424 1421 1418 1415 1412 1408 1403 1399 1394 1391 1389 1388 1387 1388 1389 1389 1390 1391 1390
1517 1516 1513 1511 1508 1506 1503 1500 1498 1494 1491 1487 1484 1480 1475 1471 1465 1460 1453 1447 1440 1433 1428 1423 1420 1417 1414 1409 1405 1400 1395 1390 1386 1384 1382 1382 1383 1385 1386 1388 1389 1389 1388
1517 1515 1512 1509 1507 1504 1502 1499 1496 1492 1489 1485 1481 1477 1472 1467 1462 1455 1449 1441 1435 1429 1424 1420 1417 1413 1409 1404 1398 1393 1387 1382 1378 1376 1376 1378 1381 1383 1385 1387 1387 1388 1388
1516 1513 1511 1508 1505 1502 1500 1496 1493 1490 1486 1483 1478 1474 1469 1464 1458 1451 1443 1436 1429 1425 1421 1417 1414 1409 1405 1400 1394 1388 1383 1378 1375 1374 1374 1377 1380 1382 1385 1386 1387 1388 1388
1514 1512 1509 1506 1503 1500 1497 1494 1491 1487 1484 1480 1476 1471 1466 1460 1454 1447 1439 1432 1426 1422 1418 1415 1411 1407 1401 1396 1390 1385 1380 1378 1376 1375 1377 1379 1382 1384 1387 1388 1389 1390 1389
1513 1510 1507 1504 1501 1497 1494 1491 1487 1484 1481 1477 1473 1468 1463 1457 1450 1443 1437 1431 1426 1421 1417 1413 1408 1403 1398 1392 1387 1382 1379 1378 1378 1379 1380 1383 1386 1388 1390 1391 1393 1393 1392
1512 1509 1506 1502 1498 1495 1491 1488 1485 1482 1479 1475 1471 1466 1460 1454 1447 1441 1436 1431 1427 1422 1417 1412 1407 1402 1396 1390 1385 1381 1380 1380 1381 1383 1385 1388 1391 1393 1394 1395 1396 1396 1397
1511 1508 1504 1500 1497 1493 1490 1487 1484 1481 1477 1473 1468 1463 1457 1452 1446 1440 1435 1431 1427 1422 1417 1412 1407 1401 1395 1390 1385 1383 1382 1383 1385 1388 1391 1393 1396 1398 1399 1400 1402 1402 1403
1510 1506 1503 1500 1497 1494 1491 1488 1484 1480 1476 1472 1467 1462 1456 1451 1445 1440 1435 1431 1427 1423 1418 1413 1408 1402 1397 1392 1389 1387 1387 1388 1390 1393 1396 1399 1401 1403 1405 1406 1408 1410 1411
1509 1506 1503 1500 1497 1494 1491 1488 1485 1481 1477 1473 1467 1462 1457 1451 1447 1442 1437 1433 1429 1425 1420 1415 1410 1405 1400 1396 1394 1393 1393 1394 1396 1399 1402 1404 1407 1409 1411 1414 1415 1417 1419
1510 1507 1505 1502 1499 1495 1493 1490 1486 1483 1478 1474 1469 1464 1458 1454 1448 1443 1439 1436 1432 1428 1423 1418 1413 1409 1405 1402 1400 1399 1400 1401 1402 1405 1407 1410 1413 1415 1418 1420 1423 1425 1426
1512 1509 1506 1503 1500 1497 1494 1491 1488 1484 1480 1475 1470 1465 1460 1454 1450 1445 1442 1438 1435 1431 1426 1422 1418 1414 1411 1408 1407 1406 1406 1407 1409 1411 1413 1416 1419 1421 1424 1426 1429 1431 1434
1513 1511 1508 1505 1502 1499 1496 1493 1489 1485 1481 1477 1472 1467 1461 1456 1452 1448 1445 1442 1438 1434 1430 1426 1423 1419 1417 1414 1413 1412 1413 1414 1415 1417 1420 1422 1424 1427 1430 1432 1435 1438 1440
1515 1513 1510 1507 1504 1502 1499 1495 1492 1488 1484 1479 1474 1469 1464 1460 1456 1452 1449 1445 1442 1438 1435 1431 1428 1425 1422 1421 1419 1419 1419 1420 1422 1423 1425 1428 1430 1433 1435 1438 1441 1444 1446
1518 1515 1512 1510 1507 1504 1501 1498 1494 1490 1486 1482 1477 1473 1468 1463 1459 1456 1453 1449 1446 1443 1440 1436 1433 1431 1429 1427 1426 1425 1426 1426 1428 1429 1431 1433 1436 1438 1441 1444 1447 1449 1452
1520 1518 1515 1512 1510 1507 1504 1501 1497 1494 1490 1486 1482 1478 1473 1468 1464 1461 1457 1454 1451 1448 1445 1442 1439 1436 1435 1433 1432 1432 1432 1432 1434 1435 1437 1439 1441 1443 1446 1449 1451 1454 1456
1523 1521 1518 1516 1513 1511 1508 1505 1501 1497 1494 1490 1486 1481 1477 1473 1469 1465 1462 1459 1456 1453 1450 1447 1444 1442 1440 1439 1438 1438 1437 1438 1439 1440 1442 1443 1446 1448 1451 1453 1455 1458 1460
1526 1524 1522 1520 1517 1515 1512 1509 1505 1501 1497 1493 1489 1485 1481 1478 1474 1470 1467 1464 1461 1458 1455 1452 1450 1447 1446 1444 1443 1443 1442 1443 1444 1445 1446 1448 1450 1452 1455 1457 1459 1461 1464
1529 1527 1525 1523 1521 1519 1516 1512 1509 1505 1501 1497 1493 1490 1486 1482 1479 1475 1472 1469 1466 1463 1460 1458 1455 1453 1451 1449 1448 1447 1447 1447 1448 1450 1451 1453 1455 1457 1459 1461 1464 1466 1469
1532 1530 1529 1527 1525 1522 1519 1516 1513 1509 1505 1501 1498 1494 1491 1487 1484 1481 1478 1474 1471 1468 1466 1463 1461 1459 1457 1455 1453 1452 1452 1452 1453 1454 1456 1458 1459 1461 1463 1465 1468 1470 1473
1536 1534 1532 1530 1528 1526 1523 1520 1517 1513 1510 1506 1502 1499 1495 1492 1489 1486 1483 1480 1477 1474 1471 1468 1466 1464 1462 1461 1459 1458 1457 1457 1458 1459 1460 1462 1463 1465 1467 1469 1472 1474 1477